Regional Weather Roundup
Issued by NWS Newport/Morehead, NC

Current Version | Previous Version | Graphics & Text | Print | Product List | Glossary Off
Versions: 1 2 3 4 5 6 7 8 9 10 11 12 13 14 15 16 17 18 19 20 21 22 23 24 25 26 27 28 29 30 31 32 33 34 35 36 37 38 39 40 41 42 43 44 45 46 47 48 49 50

211
ASUS42 KMHX 250813
RWRMHX
WEATHER ROUNDUP FOR EASTERN NORTH CAROLINA
NATIONAL WEATHER SERVICE NEWPORT/MOREHEAD CITY NC
400 AM EDT SUN SEP 25 2016

NOTE: "FAIR" INDICATES FEW OR NO CLOUDS BELOW 12,000 FEET
WITH NO SIGNIFICANT WEATHER AND/OR OBSTRUCTIONS TO VISIBILITY

NCZ015>017-031-032-045>047-102-103-250900-
NORTH COAST

CITY           SKY/WX    TMP DP  RH WIND       PRES   REMARKS
EDENTON        CLOUDY    72  72  99 N3        30.09S
ELIZABETH CITY CLOUDY    71  66  84 NE7       30.08S
KITTY HAWK     NOT AVBL
MANTEO         CLOUDY    72  65  78 NE8       30.07F

$$

NCZ045>047-081-094-103-104-250900-
CENTRAL COAST

CITY           SKY/WX    TMP DP  RH WIND       PRES   REMARKS
FRISCO         MOCLDY    74  68  81 NE8       30.05F

$$

NCZ095-097-098-100-101-250900-
SOUTHERN COAST

CITY           SKY/WX    TMP DP  RH WIND       PRES   REMARKS
BEAUFORT       CLOUDY    75  71  87 NE6       30.06R
CEDAR ISLAND   NOT AVBL
JACKSONVILLE   CLEAR     72  70  93 N5        30.06R
PINEY ISLAND   CLOUDY   N/A N/A N/A NE10      30.06S
WILMINGTON     CLEAR     69  67  93 CALM      30.05R


$$

NCZ011>013-027>030-043-044-078>080-089-090>093-098-250900-
COASTAL PLAIN

CITY           SKY/WX    TMP DP  RH WIND       PRES   REMARKS
AHOSKIE        DRIZZLE   68  67  97 CALM      30.11S
CLINTON        CLEAR     71  71  99 NE3       30.07S
ELIZABETHTOWN  CLEAR     70  70 100 CALM      30.05R FOG
GOLDSBORO      MOCLDY    73  73 100 NE8       30.07S
GREENVILLE     CLOUDY    72  70  94 NE7       30.10S
HAVELOCK       CLOUDY    74  70  87 NE13      30.07S
KENANSVILLE    CLEAR     68  68 100 CALM      30.08R FOG
KINSTON        CLOUDY    73  70  93 NE6       30.09R
NEW BERN       CLOUDY    73  69  87 NE6       30.08S
RICHLANDS      PTCLDY    69  69 100 NE6       30.07S FOG
ROCKY MOUNT    CLOUDY    71  69  93 NE6       30.10R
WASHINGTON     CLOUDY    71  69  93 NE3       30.09R
WHITEVILLE     NOT AVBL

$$

AMZ130-135-150-152-154-156-158-170-250-252-270-ANZ085-086-088-633-658-670-250900-
MARINE OBSERVATIONS

STATION/POSITION TIME  TEMP    WIND        PRES    WAVE   SWELL
                       AIR SEA DIR/SP/G            HT/PER HT/PER
                 (UTC) (F)     (DEG/KT/KT) (MB)    (FT/S) (FT/S)
CHESAPEAKE LIGHT NOT AVBL
64 E VA BEACH    0750   71 74   20/ 17/ 21 1017.8    6/10   3/10
DUCK             0742   72 78   40/ 15/ 18 1017.8
2 E DUCK         0741      77                N/A     5/10   2/11
OREGON INLET     0742   73 78   20/ 12/ 17 1017.9
13E OREGON INLT  0800      77                N/A     6/11   5/11
HATTERAS CG      0742   74 81   40/  7/ 12 1017.4
DIAMOND BUOY     0750   76 85   20/ 16/ 19 1016.9    7/11   5/11
CAPE LOOKOUT     0800   77      50/ 13/ 15 1017.3
BEAUFORT LAB     0742   75 80   50/  5/  7 1017.0
30 SE NEW RVR IN 0708   79 82   70/ 14/ 17 1016.9
30 SE NEW RVR IN 0755      82                N/A     4/12   2/12
27 SE WRIGHTSVLE 0708   81 81   90/  8/ 12 1017.0
5 SE WRIGHTSVLE  0708   81 81   90/  8/ 10 1018.0
225 S CAPE HAT   0750   81 84   50/  4/  6 1015.0    4/10   3/10
41 SE CHARLESTON 0750   80 82   50/ 10/ 12 1015.6    4/10   3/10

$$




USA.gov is the U.S. government's official web portal to all federal, state and local government web resources and services.